Simultaneous Nadir Overpasses (SNOs) Predictions

Prediction of SNOs between AURA and NPP Satellite Orbit:

Table of predicted SNOs for the next 14.0 days since TLE Epoch: 4/6/2024
Index Date (AURA) Time (AURA) Lat,Lon (AURA) SZA (AURA ) Date (NPP) Time (NPP) Lat,Lon (NPP) SZA (NPP ) Distance(km) Time Diff (sec)
1 04/08/2024 01:41:12 80.49, 61.67 83.35 04/08/2024 01:41:15 80.49, 61.51 83.37 2.87 3
2 04/10/2024 15:26:11 -80.53, 35.81 97.69 04/10/2024 15:25:55 -80.53, 35.91 97.70 1.87 16
3 04/10/2024 16:15:32 80.60,-155.77 82.17 04/10/2024 16:16:37 80.59,-155.92 82.15 2.76 65
4 04/13/2024 05:11:10 80.50, 9.26 81.41 04/13/2024 05:10:37 80.50, 9.35 81.42 1.78 33
5 04/13/2024 06:00:31 -80.60, 178.09 98.80 04/13/2024 06:01:18 -80.60, 178.14 98.84 0.83 47
6 04/15/2024 18:56:09 -80.45, -17.46 99.44 04/15/2024 18:55:20 -80.44, -17.59 99.39 2.42 49
7 04/15/2024 19:45:28 80.58, 151.57 80.31 04/15/2024 19:45:59 80.57, 151.51 80.30 1.20 31
8 04/18/2024 08:41:05 80.45, -43.62 79.63 04/18/2024 08:40:00 80.45, -43.62 79.68 0.20 65



Historial Predications of SNOs between AURA and NPP
